TimeEDT,TemperatureF,Dew PointF,Humidity,Sea Level PressureIn,VisibilityMPH,Wind Direction,Wind SpeedMPH,Gust SpeedMPH,PrecipitationIn,Events,Conditions,WindDirDegrees,DateUTC
12:56 AM,70.0,68.0,93,29.92,9.0,Calm,Calm,-,N/A,,Mostly Cloudy,0,2013-08-13 04:56:00
1:09 AM,69.8,66.2,88,29.92,8.0,Calm,Calm,-,N/A,,Scattered Clouds,0,2013-08-13 05:09:00
1:56 AM,66.9,66.0,97,29.91,5.0,SW,3.5,-,N/A,,Clear,220,2013-08-13 05:56:00
2:53 AM,66.2,66.2,100,29.89,2.5,Calm,Calm,-,N/A,,Clear,0,2013-08-13 06:53:00
2:56 AM,66.9,66.0,97,29.89,2.5,Calm,Calm,-,N/A,,Clear,0,2013-08-13 06:56:00
3:02 AM,66.2,64.4,94,29.89,1.0,Calm,Calm,-,N/A,,Mist,0,2013-08-13 07:02:00
3:11 AM,64.4,64.4,100,29.89,0.5,SW,4.6,-,N/A,Fog,Fog,230,2013-08-13 07:11:00
3:20 AM,66.2,66.2,100,29.89,0.2,SW,3.5,-,N/A,Fog,Fog,220,2013-08-13 07:20:00
3:56 AM,66.9,66.9,100,29.89,0.2,Calm,Calm,-,N/A,Fog,Fog,0,2013-08-13 07:56:00
4:41 AM,66.2,66.2,100,29.88,0.5,Calm,Calm,-,N/A,Fog,Fog,0,2013-08-13 08:41:00
4:52 AM,66.2,66.2,100,29.88,0.2,Calm,Calm,-,N/A,Fog,Fog,0,2013-08-13 08:52:00
4:56 AM,66.9,66.0,97,29.88,0.2,Calm,Calm,-,N/A,Fog,Fog,0,2013-08-13 08:56:00
5:56 AM,66.0,64.9,96,29.88,0.2,Calm,Calm,-,N/A,Fog,Fog,0,2013-08-13 09:56:00
6:12 AM,64.4,64.4,100,29.88,2.0,Calm,Calm,-,N/A,,Mostly Cloudy,0,2013-08-13 10:12:00
6:56 AM,66.0,64.9,96,29.88,3.0,Calm,Calm,-,N/A,,Partly Cloudy,0,2013-08-13 10:56:00
7:03 AM,66.2,66.2,100,29.87,3.0,Calm,Calm,-,N/A,,Mostly Cloudy,0,2013-08-13 11:03:00
7:20 AM,68.0,66.2,94,29.87,2.5,Calm,Calm,-,N/A,,Mostly Cloudy,0,2013-08-13 11:20:00
7:56 AM,70.0,69.1,97,29.86,4.0,SE,3.5,-,N/A,,Mostly Cloudy,130,2013-08-13 11:56:00
8:56 AM,71.1,68.0,90,29.85,9.0,SSE,6.9,-,N/A,,Overcast,160,2013-08-13 12:56:00
9:56 AM,70.0,68.0,93,29.85,6.0,Variable,3.5,-,N/A,,Overcast,0,2013-08-13 13:56:00
10:56 AM,72.0,66.9,84,29.85,10.0,South,8.1,-,N/A,,Mostly Cloudy,190,2013-08-13 14:56:00
11:56 AM,72.0,66.9,84,29.85,10.0,SSW,10.4,-,0.00,Rain,Light Rain,210,2013-08-13 15:56:00
12:56 PM,70.0,68.0,93,29.86,6.0,SSW,8.1,-,0.01,Rain,Light Rain,210,2013-08-13 16:56:00
1:56 PM,70.0,68.0,93,29.82,7.0,SSE,4.6,-,0.06,Rain,Light Rain,160,2013-08-13 17:56:00
2:56 PM,70.0,66.9,90,29.76,9.0,South,4.6,-,0.03,Rain,Light Rain,170,2013-08-13 18:56:00
3:03 PM,69.8,66.2,88,29.75,10.0,SSE,6.9,-,0.00,Rain,Light Rain,160,2013-08-13 19:03:00
3:12 PM,69.8,66.2,88,29.76,8.0,Calm,Calm,-,0.00,Rain,Light Rain,0,2013-08-13 19:12:00
3:56 PM,69.1,66.9,93,29.72,9.0,Variable,4.6,-,0.02,,Mostly Cloudy,0,2013-08-13 19:56:00
4:14 PM,69.8,66.2,88,29.72,8.0,ESE,4.6,-,N/A,,Mostly Cloudy,120,2013-08-13 20:14:00
4:56 PM,70.0,66.9,90,29.71,10.0,Calm,Calm,-,N/A,,Mostly Cloudy,0,2013-08-13 20:56:00
5:39 PM,69.8,66.2,88,29.70,10.0,Calm,Calm,-,N/A,,Mostly Cloudy,0,2013-08-13 21:39:00
5:56 PM,70.0,66.9,90,29.68,10.0,ESE,4.6,-,N/A,,Mostly Cloudy,110,2013-08-13 21:56:00
6:56 PM,69.1,66.9,93,29.69,7.0,Calm,Calm,-,0.00,Rain,Light Rain,0,2013-08-13 22:56:00
7:31 PM,69.8,66.2,88,29.69,4.0,Calm,Calm,-,0.00,Rain,Light Rain,0,2013-08-13 23:31:00
7:56 PM,68.0,66.0,93,29.70,7.0,East,3.5,-,0.00,,Overcast,80,2013-08-13 23:56:00
8:20 PM,69.8,66.2,88,29.70,8.0,Calm,Calm,-,N/A,,Overcast,0,2013-08-14 00:20:00
8:32 PM,68.0,66.2,94,29.70,8.0,Calm,Calm,-,N/A,,Overcast,0,2013-08-14 00:32:00
8:56 PM,68.0,66.9,96,29.70,8.0,North,5.8,-,0.00,,Overcast,350,2013-08-14 00:56:00
9:49 PM,68.0,66.2,94,29.70,9.0,North,3.5,-,N/A,,Overcast,360,2013-08-14 01:49:00
9:56 PM,68.0,66.0,93,29.70,9.0,Calm,Calm,-,N/A,,Overcast,0,2013-08-14 01:56:00
10:03 PM,68.0,66.2,94,29.70,9.0,Calm,Calm,-,N/A,,Overcast,0,2013-08-14 02:03:00
10:45 PM,68.0,66.2,94,29.69,9.0,NNW,3.5,-,N/A,,Scattered Clouds,340,2013-08-14 02:45:00
10:56 PM,68.0,66.0,93,29.69,9.0,Calm,Calm,-,N/A,,Partly Cloudy,0,2013-08-14 02:56:00
11:56 PM,66.9,66.0,97,29.70,8.0,West,3.5,-,N/A,,Scattered Clouds,270,2013-08-14 03:56:00